     2.10           OBSERVATION DATA    G (GPS)             RINEX VERSION / TYPE
teqc 2002Apr3 Duncan Agnew 20050511 23:58:23UTC             PGM / RUN BY / DATE
OSX 5.3|G3|cc|OSX 5.3+|G3+                                  COMMENT
BIT 2 OF LLI FLAGS DATA COLLECTED UNDER A/S CONDITION       COMMENT
IVPN 113                                                    MARKER NAME
2771                                                        MARKER NUMBER
Juan Cabrera Nolte Engineering                              OBSERVER / AGENCY
220242771 TRIMBLE 4800 NP 1.30 / SP 1.43                    REC # / TYPE / VERS
N/A TRM4800                                                 ANT # / TYPE
 -2324147.0000 -4841715.0000  3428852.0000                  APPROX POSITION XYZ
        2.0000        0.0000        0.0000                  ANTENNA: DELTA H/E/N
     1     1                                                WAVELENGTH FACT L1/2
     7    C1    L1    L2    P1    P2    S1    S2            # / TYPES OF OBSERV
SNR is mapped to RINEX snr flag value [1-9]                 COMMENT
L1: 3 -> 1; 8 -> 5; 40 -> 9                                 COMMENT
L2: 1 -> 1; 5 -> 5; 60 -> 9                                 COMMENT
  2004     6    29    15    28   10.0000000     GPS         TIME OF FIRST OBS
                                                            END OF HEADER
 04  6 29 15 28 10.0000000  0  8G 6G15G16G18G21G22G26G29
  21212453.9114      88552.89559     49355.57858                  21212452.6554
        50.5004         42.0004
  22994150.0364     -90981.24759    -59649.68757                  22994148.7094
        45.5004         32.5004
  23798685.0794      10799.82659      2224.72257                  23798683.8334
        40.5004         30.0004
  20672691.2004     -23011.50659    -18639.16458                  20672688.4264
        52.0004         45.5004
  20811919.5974     -22310.19259    -18501.33458                  20811916.9724
        51.7504         43.2504
  22237606.1114     -86763.98559    -57311.95757                  22237603.1294
        50.7504         38.7504
  22017896.6354      54480.80159     28797.67657                  22017895.5704
        46.7504         37.0004
  23256962.0624      81986.09459     45428.70857                  23256961.3164
        46.2504         31.2504
 04  6 29 15 28 20.0000000  0  8G 6G15G16G18G21G22G26G29
  21216702.2664     110877.14849     66751.08548                  21216700.8134
        50.5004         42.5004
  22989685.0444    -114446.30249    -77934.13847                  22989684.0414
        46.2504         33.0004
  23799173.4454      13368.17349      4226.01947                  23799172.5934
        41.7504         28.7504
  20671524.1194     -29142.94249    -23416.90748                  20671521.7194
        52.0004         45.2504
  20810781.4774     -28291.91749    -23162.42048                  20810778.7844
        51.5004         43.0004
  22233340.2134    -109183.51649    -74781.72447                  22233336.9174
        50.5004         38.2504
  22020518.7854      68259.74249     39534.51247                  22020517.8184
        45.5004         36.7504
  23260872.9804     102537.83249     61443.04447                  23260872.5504
        46.0004         32.0004
 04  6 29 15 28 30.0000000  0  8G 6G15G16G18G21G22G26G29
  21220942.9924     133166.53349     84119.43748                  21220941.8904
        50.5004         42.5004
  22985204.4934    -137989.82149    -96279.71747                  22985203.8394
        45.2504         32.5004
  23799657.8864      15908.54649      6205.51247                  23799656.3064
        42.2504         29.7504
  20670350.2654     -35312.16949    -28224.09548                  20670347.5154
        52.0004         45.0004
  20809631.2764     -34335.82449    -27871.96948                  20809628.6284
        51.7504         43.0004
  22229064.9424    -131649.16049    -92287.40247                  22229061.9224
        50.5004         38.2504
  22023138.5014      82026.28749     50261.67247                  22023136.9944
        47.0004         36.2504
  23264777.7594     123057.35949     77432.27247                  23264777.0294
        46.0004         30.7504
 04  6 29 15 28 40.0000000  0  8G 6G15G16G18G21G22G26G29
  21225183.1094     155446.35849    101480.31948                  21225181.5804
        50.7504         42.5004
  22980713.7824    -161586.48249   -114666.73347                  22980712.8704
        46.5004         33.0004
  23800140.0154      18446.14649      8182.85947                  23800138.8794
        41.0004         28.7504
  20669174.1204     -41493.84649    -33040.99348                  20669171.3664
        52.2504         45.5004
  20808474.2984     -40416.61749    -32610.24248                  20808471.5144
        51.5004         43.2504
  22224785.7954    -154135.71749   -109809.38947                  22224782.4884
        50.5004         37.5004
  22025760.6224      95805.62249     60998.80247                  22025759.5284
        46.0004         36.5004
  23268680.7874     143569.77749     93415.97047                  23268680.3614
        45.7504         32.0004
 04  6 29 15 28 50.0000000  0  8G 6G15G16G18G21G22G26G29
  21229424.4524     177734.35249    118847.58148                  21229423.2754
        50.5004         42.0004
  22976217.0794    -185218.48349   -133081.27047                  22976216.2704
        45.2504         32.5004
  23800625.9354      20998.73649     10171.88747                  23800624.2164
        41.2504         28.0004
  20667998.3284     -47670.27449    -37853.80148                  20667995.8604
        52.0004         45.7504
  20807313.6564     -46516.43449    -37363.34348                  20807310.5714
        52.0004         43.7504
  22220506.2284    -176625.34049   -127333.77947                  22220502.7784
        50.5004         38.0004
  22028388.7874     109615.46449     71759.71847                  22028387.4674
        46.7504         36.7504
  23272586.3454     164092.89649    109407.99547                  23272585.8094
        46.2504         31.5004
 04  6 29 15 29  0.0000000  0  8G 6G15G16G18G21G22G26G29
  21233669.5134     200041.41949    136229.70448                  21233668.1994
        51.0004         42.0004
  22971715.4674    -208874.87249   -151514.81447                  22971714.5524
        46.5004         32.5004
  23801116.9114      23577.23249     12181.10947                  23801115.5194
        41.2504         29.0004
  20666826.7444     -53830.55649    -42654.00848                  20666823.5974
        52.7504         45.5004
  20806151.8924     -52624.31649    -42122.74048                  20806149.0764
        52.2504         43.2504
  22216227.9254    -199107.11649   -144852.02147                  22216224.4384
        49.7504         38.2504
  22031024.2624     123466.76049     82552.93047                  22031022.8484
        46.7504         36.5004
  23276496.8534     184637.52649    125416.79847                  23276495.7684
        45.7504         32.0004
 04  6 29 15 29 10.0000000  0  8G 6G15G16G18G21G22G26G29
  21237919.1144     222373.53649    153631.33348                  21237917.8844
        50.7504         42.0004
  22967209.9734    -232549.60349   -169962.64847                  22967209.0884
        47.2504         32.5004
  23801613.7724      26187.57649     14215.11447                  23801612.0684
        42.5004         28.5004
  20665658.4354     -59968.69149    -47436.98248                  20665655.8264
        52.0004         45.5004
  20804988.3344     -58734.26649    -46883.73248                  20804985.5764
        52.0004         43.7504
  22211952.8144    -221574.92549   -162359.40647                  22211949.1194
        50.5004         38.5004
  22033669.2064     137365.39749     93383.02947                  22033668.2014
        46.5004         36.5004
  23280411.2494     205209.57549    141446.96247                  23280410.4054
        44.5004         31.5004
 04  6 29 15 29 20.0000000  0  8G 6G15G16G18G21G22G26G29
  21242174.1334     244735.26049    171056.05148                  21242173.1324
        50.5004         41.7504
  22962702.5964    -256238.02949   -188421.15547                  22962701.2244
        46.5004         32.5004
  23802117.2914      28834.41749     16277.57547                  23802116.0014
        43.2504         29.0004
  20664495.4334     -66080.02549    -52199.05548                  20664492.4164
        52.2504         45.5004
  20803826.2474     -64841.54549    -51642.66248                  20803823.4044
        52.0004         43.7504
  22207680.6714    -244024.12949   -179852.28747                  22207677.2814
        50.7504         38.0004
  22036323.6344     151316.02449    104253.64147                  22036322.4554
        47.2504         36.5004
  23284331.6094     225813.68249    157502.09547                  23284330.4714
        46.0004         31.2504
 04  6 29 15 29 30.0000000  0  8G 6G15G16G18G21G22G26G29
  21246435.9654     267129.47949    188506.07948                  21246434.6514
        50.7504         42.0004
  22958192.5714    -279937.31549   -206888.11247                  22958191.4544
        46.2504         32.7504
  23802627.9474      31520.49849     18370.60647                  23802626.7594
        42.5004         28.5004
  20663338.0744     -72161.65449    -56937.98748                  20663335.1754
        52.0004         45.5004
  20802665.2424     -70943.27449    -56397.26548                  20802662.5554
        52.7504         44.0004
  22203412.7964    -266451.84849   -197328.42647                  22203409.3084
        49.7504         38.5004
  22038989.1114     165321.51649    115166.99647                  22038988.0664
        46.0004         37.0004
  23288259.5724     246452.61449    173584.37547                  23288258.7154
        45.7504         31.0004
 04  6 29 15 29 40.0000000  0  8G 6G15G16G18G21G22G26G29
  21250703.2094     289556.15649    205981.41548                  21250702.3514
        50.2504         41.7504
  22953681.3154    -303647.22749   -225363.37447                  22953679.9734
        46.0004         32.5004
  23803147.0884      34246.04449     20494.40747                  23803145.6644
        42.5004         28.7504
  20662186.5044     -78213.46449    -61653.68748                  20662183.4514
        52.0004         45.0004
  20801505.1614     -77039.30849    -61147.41648                  20801502.2824
        51.7504         43.5004
  22199149.2724    -288857.88149   -214787.67147                  22199145.2074
        49.5004         38.2504
  22041664.4094     179381.90449    126123.14147                  22041663.4284
        46.0004         37.2504
  23292193.1834     267126.45549    189693.85947                  23292192.8034
        45.5004         31.5004
 04  6 29 15 29 50.0000000  0  8G 6G15G16G18G21G22G26G29
  21254977.7224     312017.20049    223483.52948                  21254976.3284
        50.5004         41.2504
  22949167.7134    -327365.94649   -243845.48747                  22949166.4034
        46.7504         32.7504
  23803673.0564      37012.79149     22650.32447                  23803671.8504
        43.0004         29.0004
  20661041.0754     -84233.66349    -66344.75048                  20661038.1684
        52.0004         45.2504
  20800346.8354     -83127.74749    -65891.66748                  20800343.8194
        52.0004         43.5004
  22194889.6144    -311240.42749   -232228.61547                  22194886.0764
        50.7504         38.0004
  22044351.0084     193498.93749    137123.42447                  22044349.9114
        45.2504         36.5004
  23296134.5274     287837.04049    205831.96747                  23296133.2824
        45.7504         30.5004
 04  6 29 15 30  0.0000000  0  8G 6G15G16G18G21G22G26G29
  21259258.0754     334511.70049    241011.70248                  21259256.8264
        51.0004         41.5004
  22944651.9394    -351094.27149   -262335.08447                  22944650.7194
        46.0004         32.5004
  23804208.3374      39819.89449     24837.64647                  23804206.1094
        41.7504         28.7504
  20659901.1014     -90223.10749    -71011.85048                  20659898.6944
        51.2504         45.0004
  20799189.2824     -89209.43849    -70630.64848                  20799186.2354
        50.7504         43.5004
  22190634.4224    -333600.25449   -249651.84247                  22190631.7324
        50.2504         38.5004
  22047048.1054     207671.75749    148167.17347                  22047046.6884
        44.5004         36.2504
  23300082.7814     308583.38349    221997.93947                  23300081.4764
        45.7504         31.5004
 04  6 29 15 30 10.0000000  0  8G 6G15G16G18G21G22G26G29
  21263545.3974     357039.59449    258565.91048                  21263543.8974
        50.7504         41.5004
  22940134.9154    -374832.08249   -280832.08047                  22940133.6124
        46.5004         32.2504
  23804749.5764      42667.38449     27056.46247                  23804748.3404
        42.5004         29.0004
  20658767.1574     -96181.75649    -75654.95448                  20658764.1024
        51.0004         45.2504
  20798033.3454     -95284.17249    -75364.20548                  20798030.4924
        51.5004         44.0004
  22186383.9634    -355937.23849   -267057.28047                  22186380.8144
        50.2504         38.5004
  22049755.4244     221900.43049    159254.45047                  22049754.4544
        43.7504         36.5004
  23304037.5204     329365.53549    238191.81847                  23304036.7744
        46.0004         30.7504
 04  6 29 15 30 20.0000000  0  8G 6G15G16G18G21G22G26G29
  21267838.3794     379601.08049    276146.26948                  21267837.1924
        51.0004         41.7504
  22935615.9904    -398579.24049   -299336.35047                  22935614.7534
        46.7504         32.5004
  23805299.2484      45555.43049     29306.85847                  23805297.5064
        43.0004         28.7504
  20657639.2184    -102109.55349    -80274.01348                  20657636.5754
        52.0004         45.5004
  20796878.7914    -101351.68449    -80092.13648                  20796875.2604
        50.7504         44.0004
  22182137.9964    -378251.18049   -284444.75547                  22182134.2254
        50.5004         38.7504
  22052473.9444     236185.08649    170385.34147                  22052472.6154
        43.7504         36.7504
  23307998.4394     350183.49449    254413.58947                  23307997.3204
        46.0004         31.0004
 04  6 29 15 30 30.0000000  0  8G 6G15G16G18G21G22G26G29
  21272137.9434     402195.48249    293752.28848                  21272136.5014
        50.5004         42.2504
  22931095.2624    -422336.30349   -317848.34447                  22931094.0274
        46.7504         32.0004
  23805856.5774      48483.30249     31588.30047                  23805854.5404
        43.0004         28.0004
  20656516.9274    -108006.98249    -84869.41348                  20656514.3964
        51.0004         45.2504
  20795725.1754    -107412.68649    -84815.00648                  20795722.4694
        51.5004         43.7504
  22177896.0094    -400542.77449   -301814.83647                  22177892.4824
        50.0004         38.2504
  22055202.4264     250525.04149    181559.31147                  22055201.1344
        44.0004         36.7504
  23311967.3614     371036.68349    270662.82547                  23311966.0024
        46.2504         30.5004
 04  6 29 15 30 40.0000000  0  8G 6G15G16G18G21G22G26G29
  21276444.0554     424823.68749    311384.63748                  21276442.8494
        51.0004         42.0004
  22926572.7494    -446102.24749   -336367.25247                  22926571.5554
        46.5004         32.5004
  23806421.3464      51452.01349     33901.58047                  23806419.6404
        43.0004         28.5004
  20655400.8074    -113873.08749    -89440.40748                  20655397.8324
        51.7504         45.2504
  20794573.4824    -113466.19049    -89532.01748                  20794570.6734
        51.7504         43.5004
  22173658.5404    -422810.90949   -319166.61747                  22173654.9784
        50.2504         38.2504
  22057942.4154     264921.21349    192777.10947                  22057941.1354
        44.5004         36.5004
  23315941.8754     391925.99949    286940.22047                  23315940.9384
        46.0004         31.0004
 04  6 29 15 30 50.0000000  0  8G 6G15G16G18G21G22G26G29
  21280756.1654     447484.45749    329042.36848                  21280754.8644
        51.0004         41.5004
  22922048.0994    -469878.34049   -354894.07647                  22922046.7664
        46.0004         32.7504
  23806994.2704      54460.26349     36245.63747                  23806992.2294
        44.0004         29.5004
  20654289.9964    -119709.14249    -93987.98448                  20654287.2974
        51.5004         45.0004
  20793422.8384    -119513.39849    -94244.13248                  20793419.8914
        51.5004         43.2504
  22169425.8634    -445056.86349   -336501.12247                  22169421.9804
        50.5004         37.7504
  22060691.9564     279372.28249    204037.69047                  22060690.9674
        44.0004         37.0004
  23319923.6034     412850.26749    303244.82647                  23319922.7374
        46.2504         30.2504
 04  6 29 15 31  0.0000000  0  8G 6G15G16G18G21G22G26G29
  21285075.0154     470180.34149    346727.45448                  21285073.8994
        51.2504         41.0004
  22917522.4774    -493661.97749   -373426.76147                  22917521.6734
        47.0004         32.5004
  23807575.0504      57510.56849     38622.49147                  23807572.5984
        43.5004         28.7504
  20653185.7864    -125512.65849    -98510.21548                  20653182.8924
        52.0004         45.2504
  20792273.7164    -125551.65849    -98949.26648                  20792270.5964
        51.5004         43.0004
  22165197.0694    -467277.98449   -353816.27747                  22165193.2254
        50.2504         37.7504
  22063453.4514     293880.85249    215343.05847                  22063451.9374
        45.5004         36.7504
  23323912.6084     433811.83449    319578.50647                  23323911.4334
        45.5004         30.7504
 04  6 29 15 31 10.0000000  0  8G 6G15G16G18G21G22G26G29
  21289400.5594     492909.92649    364438.82348                  21289399.0094
        51.0004         41.5004
  22912995.1324    -517454.53649   -391966.40847                  22912993.5444
        46.5004         32.0004
  23808162.3464      60601.56749     41031.04747                  23808161.0204
        44.0004         30.0004
  20652087.2774    -131285.00649   -103008.14348                  20652084.2514
        51.0004         45.2504
  20791126.3624    -131582.31949   -103648.49048                  20791123.2094
        51.5004         43.0004
  22160972.5914    -489475.63849   -371113.14147                  22160969.1554
        50.0004         38.0004
  22066224.6444     308445.44649    226692.09047                  22066223.5404
        43.5004         36.5004
  23327908.4164     454809.23649    335940.10047                  23327907.5104
        46.7504         31.7504
 04  6 29 15 31 20.0000000  0  8G 6G15G16G18G21G22G26G29
  21293732.4654     515673.53849    382176.68548                  21293731.1134
        50.2504         41.0004
  22908465.8344    -541255.43649   -410512.57147                  22908464.6394
        46.5004         32.0004
  23808758.6824      63733.65749     43471.61447                  23808756.9744
        43.5004         28.5004
  20650994.8444    -137025.67049   -107481.39148                  20650991.8604
        51.5004         44.7504
  20789980.2704    -137604.86249   -108341.37848                  20789977.0664
        51.2504         43.0004
  22156752.9314    -511649.37649   -388391.37247                  22156749.6314
        50.0004         38.5004
  22069006.8644     323066.44849    238085.08047                  22069005.6574
        44.0004         36.2504
  23331911.1884     475842.95849    352330.01147                  23331909.9034
        46.2504         30.2504
 04  6 29 15 31 30.0000000  0  8G 6G15G16G18G21G22G26G29
  21298070.3944     538470.56949    399940.59448                  21298068.9014
        51.0004         41.5004
  22903934.4954    -565065.33649   -429065.73447                  22903933.2494
        46.7504         33.2504
  23809362.6064      66906.23149     45943.73547                  23809360.7964
        44.2504         30.0004
  20649908.5474    -142735.36049   -111930.50048                  20649905.5274
        51.5004         45.2504
  20788835.0434    -143619.84049   -113028.37948                  20788832.3114
        52.0004         43.0004
  22152537.9674    -533799.72649   -405651.37447                  22152534.3384
        50.0004         38.2504
  22071799.8854     337743.28949    249521.58247                  22071798.4264
        46.2504         36.2504
  23335920.1644     496912.26949    368747.66147                  23335918.8694
        46.2504         30.7504
 04  6 29 15 31 40.0000000  0  8G 6G15G16G18G21G22G26G29
  21302414.9434     561301.26749    417730.74148                  21302413.7204
        51.0004         41.5004
  22899402.1444    -588883.96349   -447625.69447                  22899400.7214
        46.0004         32.5004
  23809973.8964      70119.47449     48447.53347                  23809972.1274
        43.0004         28.7504
  20648828.1174    -148413.85349   -116355.30248                  20648825.0624
        51.2504         44.7504
  20787692.5474    -149627.01649   -117709.29148                  20787689.5154
        51.0004         43.0004
  22148327.5824    -555926.42749   -422892.96247                  22148324.2394
        50.0004         38.2504
  22074603.2694     352476.05949    261001.64747                  22074602.3894
        44.0004         36.7504
  23339936.6584     518017.39149    385193.21047                  23339935.3834
        46.2504         30.2504
 04  6 29 15 31 50.0000000  0  8G 6G15G16G18G21G22G26G29
  21306766.0044     584166.24849    435547.60348                  21306764.8574
        50.2504         41.5004
  22894868.5314    -612710.59049   -466191.87547                  22894867.1184
        47.0004         32.0004
  23810592.7284      73374.03349     50983.56447                  23810591.2814
        43.0004         29.5004
  20647753.3874    -154060.27149   -120755.11148                  20647750.3744
        50.0004         45.0004
  20786550.6344    -155625.55549   -122383.48948                  20786547.9754
        50.0004         43.5004
  22144121.3214    -578028.71349   -440115.50547                  22144117.7894
        50.5004         38.5004
  22077417.6404     367265.44749    272525.83747                  22077416.6784
        44.7504         36.5004
  23343959.5014     539158.94549    401667.14347                  23343958.1554
        45.0004         29.0004
 04  6 29 15 32  0.0000000  0  8G 6G15G16G18G21G22G26G29
  21311123.5124     607065.43749    453391.11748                  21311122.3214
        50.7504         41.7504
  22890332.3024    -636545.11449   -484764.24047                  22890331.0864
        46.7504         31.7504
  23811220.1394      76669.90849     53551.75647                  23811218.3754
        44.0004         29.0004
  20646684.7874    -159674.80749   -125130.06948                  20646681.9184
        47.2504         45.0004
  20785410.8474    -161615.47049   -127050.96248                  20785407.7704
        47.5004         43.7504
  22139920.4574    -600106.54649   -457319.00847                  22139916.5174
        50.2504         38.7504
  22080242.8464     382111.50749    284094.19547                  22080241.7434
        44.0004         36.7504
  23347989.1144     560336.82549    418169.37047                  23347988.4674
        45.5004         29.7504
 04  6 29 15 32 10.0000000  0  8G 6G15G16G18G21G22G26G29
  21315488.0584     630000.20649    471262.35448                  21315486.6214
        51.0004         41.7504
  22885795.8424    -660386.24649   -503341.74647                  22885794.0954
        47.0004         32.5004
  23811855.3654      80008.39149     56153.15947                  23811854.3604
        43.0004         29.7504
  20645623.1134    -165256.07649   -129479.10848                  20645619.9584
        47.2504         45.0004
  20784273.2724    -167595.27949   -131710.54948                  20784270.2114
        47.5004         43.5004
  22135723.6504    -622158.61249   -474502.43647                  22135719.7964
        50.0004         39.0004
  22083078.6424     397015.46749    295707.65447                  22083077.5954
        45.7504         36.7504
  23352026.5374     581552.36649    434700.94947                  23352026.0024
        46.0004         29.5004
 04  6 29 15 32 20.0000000  0  8G 6G15G16G18G21G22G26G29
  21319859.2164     652970.34649    489161.15448                  21319858.0424
        50.5004         41.7504
  22881257.6864    -684234.07749   -521924.45947                  22881256.4864
        46.5004         32.2504
  23812499.1864      83389.30749     58787.61447                  23812496.8414
        43.0004         29.2504
  20644566.8114    -170804.14749   -133802.28248                  20644563.9954
        47.2504         45.0004
  20783137.1574    -173565.17949   -136362.41748                  20783133.8224
        47.5004         43.2504
  22131532.3074    -644184.98749   -491665.83347                  22131528.4624
        50.0004         38.5004
  22085926.6724     411977.06149    307366.03747                  22085924.9564
        45.7504         37.0004
  23356071.3674     602805.43849    451261.79147                  23356069.9514
        46.5004         30.0004
 04  6 29 15 32 30.0000000  0  8G 6G15G16G18G21G22G26G29
  21324236.1294     675972.64549    507085.01548                  21324234.9904
        50.7504         42.0004
  22876717.9104    -708091.70849   -540514.82347                  22876716.2274
        47.0004         32.0004
  23813149.7014      86809.54349     61452.73147                  23813147.8324
        42.5004         28.5004
  20643516.9084    -176322.34449   -138102.18348                  20643514.2864
        47.7504         45.5004
  20782002.3764    -179528.22249   -141008.94148                  20781999.5304
        48.0004         43.7504
  22127345.4174    -666188.81649   -508811.68147                  22127341.8354
        50.5004         38.0004
  22088783.5724     426993.23349    319066.95947                  22088782.3504
        45.7504         36.7504
  23360122.7464     624092.76749    467849.31047                  23360120.9324
        46.5004         30.0004
 04  6 29 15 32 40.0000000  0  8G 6G15G16G18G21G22G26G29
  21328620.0714     699010.01449    525036.19948                  21328619.1114
        49.5004         41.5004
  22872176.3514    -731956.17249   -559110.49847                  22872174.7084
        46.0004         32.2504
  23813809.0764      90271.90949     64150.65247                  23813806.8954
        41.0004         29.5004
  20642473.2234    -181807.70449   -142376.48548                  20642470.3724
        49.5004         45.0004
  20780869.2374    -185481.35849   -145647.75048                  20780866.5514
        50.2504         43.5004
  22123163.1864    -688167.10149   -525937.60247                  22123159.1834
        50.5004         38.0004
  22091652.0204     442066.85849    330812.62547                  22091651.0214
        47.5004         36.2504
  23364179.7504     645417.18049    484465.72147                  23364178.9204
        45.7504         30.0004
 04  6 29 15 32 50.0000000  0  8G 6G15G16G18G21G22G26G29
  21333010.7674     722082.62449    543014.84348                  21333009.7404
        50.0004         41.7504
  22867634.0034    -755827.29349   -577711.36347                  22867632.6414
        46.5004         31.5004
  23814475.7434      93776.65449     66881.61247                  23814473.4504
        42.0004         29.7504
  20641435.6744    -187260.01349   -146625.04348                  20641432.9034
        51.7504         45.2504
  20779738.4714    -191424.40949   -150278.69948                  20779735.5114
        52.0004         43.5004
  22118985.2634    -710119.63049   -543043.46847                  22118981.6084
        50.5004         38.2504
  22094531.2924     457198.05149    342603.16447                  22094529.9194
        45.2504         36.5004
  23368244.9624     666778.87149    501111.18247                  23368243.9054
        46.7504         29.5004
 04  6 29 15 33  0.0000000  0  8G 6G15G16G18G21G22G26G29
  21337408.0244     745190.02149    561020.60748                  21337406.5614
        50.2504         42.0004
  22863090.3054    -779705.37449   -596317.67547                  22863088.3574
        46.2504         32.0004
  23815149.9384      97323.28649     69645.20747                  23815149.0154
        42.2504         30.0004
  20640404.2424    -192679.73949   -150848.20348                  20640401.0914
        50.7504         45.2504
  20778609.2804    -197357.78549   -154902.10848                  20778606.6724
        52.2504         43.5004
  22114812.6394    -732046.66949   -560129.46147                  22114809.1394
        50.0004         38.0004
  22097421.4284     472386.34149    354438.19247                  22097420.4754
        45.7504         36.7504
  23372317.6394     688177.37449    517785.33947                  23372315.6554
        46.2504         29.7504
 04  6 29 15 33 10.0000000  0  8G 6G15G16G18G21G22G26G29
  21341811.6224     768332.72149    579053.86848                  21341810.8884
        50.7504         41.7504
  22858544.7844    -803589.85949   -614928.94747                  22858543.9534
        46.2504         32.2504
  23815833.4684     100912.30749     72441.84547                  23815831.7564
        41.7504         29.0004
  20639379.2074    -198066.39849   -155045.60448                  20639376.1944
        51.7504         44.7504
  20777482.4134    -203280.82849   -159517.46748                  20777479.4294
        52.5004         43.7504
  22110645.3354    -753947.77849   -577195.25747                  22110641.7044
        50.7504         38.2504
  22100322.6884     487632.23849    366318.10647                  22100321.7384
        46.7504         37.0004
  23376396.4004     709613.20949    534488.58347                  23376394.8754
        45.2504         30.5004
 04  6 29 15 33 20.0000000  0  8G 6G15G16G18G21G22G26G29
  21346222.2144     791510.92449    597114.79648                  21346221.6234
        50.5004         41.2504
  22853998.3864    -827480.34949   -633544.91147                  22853997.2924
        46.0004         32.0004
  23816524.2564     104544.00249     75271.71347                  23816523.2104
        41.2504         28.5004
  20638360.5024    -203419.54649   -159216.88948                  20638357.5634
        51.5004         45.0004
  20776357.3734    -209193.29249   -164124.58848                  20776354.2944
        51.7504         43.5004
  22106482.3124    -775822.58349   -594240.55047                  22106479.4634
        50.5004         38.2504
  22103235.1034     502936.06749    378243.15747                  22103233.7624
        47.0004         37.0004
  23380482.7354     731086.58049    551221.05947                  23380481.2864
        45.5004         29.5004
 04  6 29 15 33 30.0000000  0  8G 6G15G16G18G21G22G26G29
  21350640.3824     814726.52049    615204.85748                  21350639.2574
        50.5004         41.2504
  22849451.7894    -851374.90849   -652164.04047                  22849450.2964
        45.5004         31.5004
  23817224.2884     108220.34849     78136.39347                  23817222.6904
        42.5004         29.2504
  20637348.5934    -208737.33349   -163360.61348                  20637345.4994
        50.7504         45.0004
  20775234.4464    -215093.15249   -168721.88648                  20775231.4924
        51.2504         44.2504
  22102325.2024    -797669.02849   -611263.74747                  22102322.0584
        50.7504         38.2504
  22106158.7794     518299.64649    390214.77447                  22106157.4864
        44.5004         37.0004
  23384576.3984     752599.31849    567984.23647                  23384574.4634
        46.0004         29.0004
 04  6 29 15 33 40.0000000  0  8G 6G15G16G18G21G22G26G29
  21355064.7264     837977.35049    633322.38348                  21355063.7714
        50.0004         41.2504
  22844903.3064    -875275.64949   -670787.97947                  22844901.8684
        45.7504         30.5004
  23817931.9314     111939.11149     81034.12847                  23817930.2104
        41.0004         29.2504
  20636342.9354    -214021.84449   -167478.42248                  20636339.9724
        51.2504         45.5004
  20774113.9444    -220982.46349   -173310.95848                  20774111.1164
        51.5004         43.5004
  22098173.0204    -819489.32849   -628266.57547                  22098169.5104
        49.7504         38.0004
  22109093.3614     533720.79049    402231.24247                  22109091.9164
        46.5004         36.7504
  23388677.2484     774149.36549    584776.48047                  23388675.4994
        46.0004         29.5004
 04  6 29 15 33 50.0000000  0  8G 6G15G16G18G21G22G26G29
  21359495.9264     861263.01649    651467.04648                  21359494.7444
        50.0004         41.2504
  22840353.9544    -899183.02549   -689417.11547                  22840352.9614
        44.5004         31.0004
  23818647.7524     115699.73449     83964.45247                  23818646.0884
        40.0004         29.5004
  20635343.6874    -219273.54949   -171570.65848                  20635340.8504
        52.2504         44.7504
  20772995.0944    -226861.66449   -177892.15648                  20772992.0174
        52.2504         43.5004
  22094025.5744    -841283.86849   -645249.32647                  22094022.2454
        50.2504         38.2504
  22112038.5554     549199.00349    414292.18747                  22112037.7964
        47.0004         36.5004
  23392784.8314     795736.03049    601597.25147                  23392783.6994
        45.2504         29.7504
 04  6 29 15 34  0.0000000  0  8G 6G15G16G18G21G22G26G29
  21363933.7614     884584.67249    669639.74348                  21363932.4454
        51.0004         41.0004
  22835803.5654    -923095.66649   -708050.33447                  22835802.2484
        45.5004         31.0004
  23819371.3314     119503.63149     86928.54547                  23819369.6344
        42.5004         29.0004
  20634350.7524    -224491.15449   -175636.32148                  20634347.7804
        52.0004         45.0004
  20771878.5764    -232729.40649   -182464.42348                  20771875.3344
        51.5004         43.2504
  22089883.6214    -863051.28349   -662210.94447                  22089880.0904
        50.7504         38.5004
  22114995.1434     564735.60849    426398.63247                  22114994.1244
        46.2504         37.0004
  23396899.9224     817360.59449    618447.55747                  23396898.4754
        45.0004         29.7504
 04  6 29 15 34 10.0000000  0  8G 6G15G16G18G21G22G26G29
  21368378.6174     907941.37449    687839.76048                  21368377.6914
        49.0004         41.2504
  22831252.2564    -947014.45349   -726688.34847                  22831250.8574
        44.5004         32.2504
  23820103.4744     123349.88949     89925.60247                  23820101.9294
        41.0004         29.0004
  20633364.1064    -229675.58449   -179676.14848                  20633361.2634
        52.0004         45.2504
  20770763.9594    -238586.49849   -187028.39448                  20770760.9134
        52.0004         44.0004
  22085746.3684    -884792.44649   -679152.11147                  22085742.7894
        50.5004         38.5004
  22117962.3274     580329.64149    438549.81747                  22117961.5414
        46.5004         36.7504
  23401021.6864     839022.17049    635326.71447                  23401020.4014
        45.5004         30.2504
 04  6 29 15 34 20.0000000  0  8G 6G15G16G18G21G22G26G29
  21372829.7424     931333.88749    706067.67948                  21372828.4914
        49.5004         41.2504
  22826699.2014    -970938.66149   -745330.57847                  22826697.9174
        44.7504         32.5004
  23820842.9334     127239.07349     92956.11847                  23820841.6714
        41.2504         30.0004
  20632384.0074    -234826.11149   -183689.54848                  20632381.0524
        50.0004         45.0004
  20769651.5804    -244432.18249   -191583.47548                  20769648.7254
        50.2504         43.2504
  22081613.7264    -906506.65849   -696072.26547                  22081610.5914
        50.2504         38.5004
  22120941.4514     595981.68749    450746.21747                  22120939.9574
        48.0004         37.5004
  23405150.9664     860721.39849    652235.16847                  23405149.7454
        45.7504         30.0004
 04  6 29 15 34 30.0000000  0  8G 6G15G16G18G21G22G26G29
  21377288.5024     954763.01249    724324.13348                  21377287.5094
        48.2504         41.2504
  22822145.9304    -994867.29649   -763976.27347                  22822144.6454
        45.2504         31.5004
  23821591.6864     131172.16149     96020.85347                  23821590.2234
        40.0004         28.7504
  20631410.7734    -239941.84249   -187675.83048                  20631407.5804
        48.5004         45.0004
  20768541.5974    -250265.49849   -196128.91648                  20768538.3374
        48.5004         43.5004
  22077487.0784    -928192.92549   -712970.64447                  22077484.2744
        50.0004         38.5004
  22123930.8224     611692.66649    462988.51947                  22123929.5534
        47.0004         36.7504
  23409287.3734     882459.15849    669173.69247                  23409286.8384
        46.0004         30.0004
 04  6 29 15 34 40.0000000  0  8G 6G15G16G18G21G22G26G29
  21381753.4464     978227.96649    742608.49748                  21381752.3624
        49.0004         40.7504
  22817591.7314   -1018801.06549   -782625.96147                  22817590.1154
        45.0004         32.0004
  23822348.7994     135148.29949     99119.14047                  23822347.0474
        39.0004         29.0004
  20630443.6004    -245023.54149   -191635.60148                  20630440.9084
        50.5004         45.0004
  20767433.5284    -256087.17749   -200665.29348                  20767430.6684
        50.0004         43.7504
  22073365.9224    -949852.03149   -729847.87147                  22073362.1224
        50.2504         39.0004
  22126931.6264     627461.82549    475276.17347                  22126930.5284
        47.5004         37.5004
  23413431.0584     904234.61649    686141.56647                  23413430.4264
        45.0004         29.5004
 04  6 29 15 34 50.0000000  0  8G 6G15G16G18G21G22G26G29
  21386225.9634    1001729.31249    760921.23448                  21386224.7844
        48.2504         41.2504
  22813036.3034   -1042739.40949   -801279.21147                  22813034.3934
        45.2504         32.2504
  23823113.2484     139168.01249    102251.38747                  23823111.8914
        39.2504         29.0004
  20629482.9734    -250070.71549   -195568.46048                  20629480.2374
        51.2504         44.7504
  20766328.5094    -261896.61949   -205192.12748                  20766325.2084
        50.5004         43.7504
  22069249.4334    -971483.35149   -746703.44247                  22069246.2084
        49.7504         38.5004
  22129943.5214     643289.64849    487609.53747                  22129942.4504
        47.7504         36.7504
  23417581.5914     926048.19849    703139.15647                  23417581.0944
        44.2504         28.2504
 04  6 29 15 35  0.0000000  0  8G 6G15G16G18G21G22G26G29
  21390704.7094    1025267.88849    779262.96848                  21390704.1764
        49.0004         41.0004
  22808480.3104   -1066681.32549   -819935.25647                  22808478.3484
        45.2504         32.2504
  23823887.0284     143232.18649    105418.25747                  23823885.0114
        39.5004         28.7504
  20628529.4964    -255082.42449   -199473.69448                  20628526.9224
        51.7504         45.0004
  20765225.0724    -267692.80349   -209708.63848                  20765222.1284
        50.5004         43.7504
  22065138.6484    -993085.87549   -763536.56747                  22065135.2034
        50.5004         39.0004
  22132967.0184     659176.99849    499989.30047                  22132965.5164
        47.5004         37.5004
  23421740.7734     947900.91649    720167.24547                  23421739.9274
        45.0004         30.0004
 04  6 29 15 35 10.0000000  0  8G 6G15G16G18G21G22G26G29
  21395190.9214    1048842.33049    797632.65748                  21395190.0414
        47.5004         41.2504
  22803923.3674   -1090628.09249   -838595.05447                  22803921.7794
        46.7504         33.0004
  23824668.1654     147339.53749    108618.76947                  23824666.9494
        40.7504         29.7504
  20627582.3084    -260060.03349   -203352.35048                  20627579.1694
        52.0004         45.0004
  20764124.2584    -273476.99149   -214215.80148                  20764121.3344
        51.0004         44.0004
  22061033.1454   -1014660.92549   -780348.29947                  22061029.4944
        51.0004         38.5004
  22136001.0564     675122.59249    512414.42847                  22135999.9134
        48.0004         36.7504
  23425905.7434     969791.25249    737224.62047                  23425905.3044
        45.0004         30.0004
 04  6 29 15 35 20.0000000  0  8G 6G15G16G18G21G22G26G29
  21399683.9594    1072452.87549    816030.47248                  21399682.7224
        49.0004         40.7504
  22799365.9034   -1114579.43349   -857258.43147                  22799363.9674
        46.2504         32.0004
  23825458.1294     151490.26449    111853.09647                  23825456.6714
        39.5004         28.5004
  20626641.5284    -265003.23649   -207204.19948                  20626638.7004
        52.0004         45.2504
  20763026.0254    -279248.79549   -218713.30648                  20763023.0234
        50.5004         43.2504
  22056932.4774   -1036208.16449   -797138.33947                  22056929.1404
        50.5004         38.5004
  22139046.4044     691126.51449    524885.00447                  22139045.5184
        48.2504         37.0004
  23430079.1014     991719.41949    754311.50847                  23430078.1424
        45.7504         29.5004
 04  6 29 15 35 30.0000000  0  8G 6G15G16G18G21G22G26G29
  21404183.9704    1096100.20949    834456.96748                  21404182.4474
        49.0004         40.5004
  22794806.9644   -1138534.57049   -875924.77647                  22794805.4884
        46.0004         32.0004
  23826256.3074     155685.02549    115121.75047                  23826255.0834
        40.7504         28.5004
  20625707.3924    -269911.34549   -211028.69648                  20625704.7654
        51.7504         45.0004
  20761930.3904    -285007.55449   -223200.65248                  20761927.6024
        50.5004         43.2504
  22052837.9434   -1057726.87249   -813906.16247                  22052834.3404
        50.2504         39.0004
  22142103.3454     707189.47249    537401.59847                  22142101.8624
        48.5004         36.5004
  23434259.1894    1013686.14649    771428.43247                  23434258.2114
        45.7504         30.2504
 04  6 29 15 35 40.0000000  0  8G 6G15G16G18G21G22G26G29
  21408691.4994    1119786.09349    852913.49848                  21408690.1984
        48.0004         41.0004
  22790248.3254   -1162491.63449   -894592.59747                  22790247.0844
        46.2504         32.5004
  23827063.2214     159925.66049    118426.13647                  23827062.2524
        38.7504         28.5004
  20624780.8474    -274782.43949   -214824.35748                  20624777.5334
        52.0004         45.5004
  20760837.1804    -290751.43449   -227676.40248                  20760834.5294
        50.0004         43.5004
  22048748.7724   -1079215.19349   -830650.30647                  22048744.7634
        49.7504         38.5004
  22145171.8134     723313.30949    549965.61647                  22145170.2144
        48.5004         37.2504
  23438447.1464    1035693.18849    788576.74847                  23438445.7344
        44.7504         31.0004
 04  6 29 15 35 50.0000000  0  8G 6G15G16G18G21G22G26G29
  21413205.3604    1143508.01549    871398.10748                  21413204.4734
        49.0004         41.5004
  22785688.1284   -1186453.13649   -913263.89847                  22785687.0214
        45.5004         31.5004
  23827878.1974     164209.57049    121764.21747                  23827877.5514
        40.7504         28.5004
  20623860.1474    -279619.09949   -218593.18848                  20623857.5694
        51.0004         44.7504
  20759746.7884    -296482.81549   -232142.42548                  20759743.5544
        51.2504         43.5004
  22044664.9084   -1100675.57649   -847372.67347                  22044661.3204
        51.0004         38.2504
  22148251.2454     739495.37849    562575.01447                  22148249.7874
        47.2504         36.2504
  23442642.0054    1057738.01949    805754.53547                  23442640.8944
        43.5004         30.0004
 04  6 29 15 36  0.0000000  0  8G 6G15G16G18G21G22G26G29
  21417726.2714    1167265.71249    889910.58748                  21417724.9194
        48.5004         41.0004
  22781128.0944   -1210419.18049   -931938.73347                  22781126.7144
        44.5004         32.7504
  23828701.6934     168536.69749    125135.99947                  23828700.8774
        39.7504         27.0004
  20622946.0974    -284421.57249   -222335.37548                  20622943.6064
        51.5004         44.7504
  20758658.3484    -302201.82049   -236598.78648                  20758655.2704
        51.0004         43.5004
  22040586.5574   -1122108.14049   -864073.36447                  22040582.9704
        50.5004         38.2504
  22151341.2614     755735.58249    575229.72747                  22151340.1804
        47.7504         36.7504
  23446843.9834    1079820.34249    822961.53347                  23446843.1834
        43.5004         30.0004
 04  6 29 15 36 10.0000000  0  8G 6G15G16G18G21G22G26G29
  21422254.5314    1191060.36249    908451.85848                  21422253.2144
        47.5004         41.0004
  22776566.5214   -1234388.56549   -950616.17447                  22776565.2954
        44.0004         33.0004
  23829533.7584     172908.09049    128542.27047                  23829532.6084
        38.5004         28.0004
  20622039.1474    -289188.63549   -226049.97048                  20622036.2014
        51.7504         45.0004
  20757572.8774    -307907.17049   -241044.51548                  20757569.6574
        49.2504         43.5004
  22036513.5584   -1143511.69549   -880751.45447                  22036509.9314
        50.0004         38.5004
  22154443.4314     772035.00149    587930.56847                  22154441.9614
        48.0004         36.5004
  23451053.8674    1101941.23449    840198.57647                  23451052.9614
        45.0004         30.0004
 04  6 29 15 36 20.0000000  0  8G 6G15G16G18G21G22G26G29
  21426789.2734    1214890.79149    927020.99748                  21426788.1564
        48.0004         41.5004
  22772004.6644   -1258362.36349   -969297.05747                  22772003.3884
        44.2504         33.5004
  23830374.2324     177322.56549    131982.08347                  23830372.2954
        38.7504         27.7504
  20621138.5414    -293921.43549   -229737.86648                  20621135.8504
        51.7504         45.0004
  20756489.3564    -313599.90049   -245480.41948                  20756486.4334
        50.2504         43.5004
  22032445.9484   -1164887.33649   -897407.79647                  22032442.2984
        50.2504         38.5004
  22157555.6384     788392.52249    600676.67647                  22157554.5514
        47.0004         36.7504
  23455270.1044    1124099.74949    857464.93647                  23455269.5724
        45.2504         29.7504
 04  6 29 15 36 30.0000000  0  8G 6G15G16G18G21G22G26G29
  21431331.2534    1238757.76349    945618.62848                  21431329.9984
        49.0004         41.0004
  22767441.9114   -1282339.69449   -987980.68847                  22767440.9324
        45.0004         33.5004
  23831221.8234     181781.00049    135456.20047                  23831220.6794
        39.0004         27.7504
  20620244.7834    -298619.10749   -233398.39848                  20620241.5404
        52.0004         44.7504
  20755408.6114    -319279.05749   -249905.72648                  20755405.7054
        50.5004         43.7504
  22028383.2764   -1186234.17449   -914041.69647                  22028379.8874
        50.2504         38.5004
  22160679.7494     804808.84949    613468.62247                  22160678.4354
        47.5004         36.7504
  23459494.0524    1146296.46449    874761.05747                  23459493.5704
        45.0004         29.0004
 04  6 29 15 36 40.0000000  0  8G 6G15G16G18G21G22G26G29
  21435879.6274    1262661.66949    964245.04448                  21435878.7074
        48.5004         41.0004
  22762878.6914   -1306320.18349  -1006666.76347                  22762877.1114
        44.7504         32.5004
  23832079.5954     186283.72249    138964.79447                  23832078.3864
        39.5004         26.7504
  20619357.4504    -303281.34949   -237031.30648                  20619354.3974
        52.0004         44.7504
  20754330.3744    -324944.38549   -254320.26248                  20754327.8114
        50.5004         44.0004
  22024326.7734   -1207551.82449   -930652.83547                  22024323.3294
        50.5004         38.5004
  22163814.6224     821284.33249    626306.66647                  22163813.8004
        48.2504         36.0004
  23463725.1624    1168531.62349    892087.15647                  23463723.9354
        46.0004         29.7504
 04  6 29 15 36 50.0000000  0  8G 6G15G16G18G21G22G26G29
  21440435.3004    1286602.48249    982900.21148                  21440434.2154
        49.0004         41.0004
  22758314.5014   -1330303.78149  -1025355.28947                  22758313.8634
        44.2504         34.0004
  23832944.1524     190830.68049    142507.86147                  23832943.1454
        39.2504         27.7504
  20618477.1624    -307908.19249   -240636.64348                  20618473.9234
        51.0004         44.7504
  20753255.1114    -330595.97449   -258724.10148                  20753252.5864
        50.7504         43.7504
  22020275.8334   -1228840.24249   -947241.21247                  22020272.4914
        50.5004         39.2504
  22166961.2824     837818.99349    639190.80147                  22166960.1594
        48.0004         36.0004
  23467964.3274    1190805.40149    909443.35247                  23467963.1454
        45.0004         29.0004
 04  6 29 15 37  0.0000000  0  8G 6G15G16G18G21G22G26G29
  21444998.5774    1310580.00949   1001583.99448                  21444997.2054
        49.0004         41.0004
  22753750.2244   -1354290.50149  -1044046.22747                  22753749.2344
        43.7504         33.5004
  23833818.5014     195421.74049    146085.30047                  23833816.8734
        39.0004         28.2504
  20617603.1994    -312499.62449   -244214.37248                  20617600.3364
        51.5004         45.2504
  20752182.4004    -336233.68949   -263117.12648                  20752178.9864
        51.0004         43.5004
  22016230.6584   -1250099.48449   -963806.84447                  22016227.0644
        50.5004         38.5004
  22170119.3084     854412.56549    652120.86047                  22170117.9234
        47.7504         36.2504
  23472209.5914    1213117.52949    926829.40347                  23472208.8294
        45.7504         30.0004
 04  6 29 15 37 10.0000000  0  8G 6G15G16G18G21G22G26G29
  21449567.8184    1334594.44249   1020296.53148                  21449566.6854
        47.7504         41.2504
  22749184.9294   -1378280.15349  -1062739.47047                  22749184.0564
        44.5004         33.7504
  23834700.0254     200057.10249    149697.26747                  23834699.3014
        40.5004         28.2504
  20616736.3214    -317055.44749   -247764.37048                  20616733.3294
        51.0004         44.7504
  20751112.0214    -341857.24549   -267499.11848                  20751109.3624
        50.0004         43.7504
  22012190.6234   -1271329.29049   -980349.54147                  22012187.3264
        50.2504         38.7504
  22173287.9274     871065.38549    665097.08047                  22173287.0404
        47.7504         36.0004
  23476462.8724    1235468.16949    944245.48047                  23476462.2384
        45.2504         29.7504
 04  6 29 15 37 20.0000000  0  8G 6G15G16G18G21G22G26G29
  21454145.0604    1358646.38349   1039038.29248                  21454143.7924
        49.2504         41.5004
  22744619.1164   -1402272.02049  -1081434.41347                  22744618.3954
        45.2504         33.2504
  23835590.4464     204737.29849    153344.16047                  23835589.8384
        39.2504         28.5004
  20615876.3774    -321575.06049   -251286.14648                  20615873.4534
        51.5004         44.5004
  20750044.7634    -347465.99249   -271869.57348                  20750042.4014
        50.2504         43.7504
  22008156.7044   -1292529.04949   -996868.83447                  22008152.8444
        50.2504         39.0004
  22176468.2524     887777.86049    678119.78147                  22176466.9194
        48.2504         36.0004
  23480723.9254    1257857.78049    961691.92047                  23480722.8194
        45.0004         30.0004
 04  6 29 15 37 30.0000000  0  8G 6G15G16G18G21G22G26G29
  21458729.3734    1382737.07849   1057810.26048                  21458728.2074
        46.5004         41.0004
  22740053.6684   -1426264.80749  -1100130.07647                  22740053.0724
        44.5004         33.2504
  23836489.8694     209463.62049    157026.97647                  23836489.1244
        40.2504         28.0004
  20615023.2544    -326057.29449   -254778.80048                  20615020.1724
        51.2504         44.5004
  20748980.9504    -353058.64149   -276227.46948                  20748977.7334
        49.0004         44.0004
  22004128.1614   -1313697.44949  -1013363.67147                  22004124.8324
        51.0004         39.2504
  22179659.9844     904551.23149    691189.93847                  22179658.8564
        48.2504         36.5004
  23484992.1394    1280287.67649    979169.74947                  23484990.4804
        45.7504         29.5004
 04  6 29 15 37 40.0000000  0  8G 6G15G16G18G21G22G26G29
  21463320.7814    1406863.74349   1076610.24648                  21463319.1834
        47.7504         41.0004
  22735487.4504   -1450261.12549  -1118828.50147                  22735486.2204
        45.5004         33.5004
  23837397.7254     214233.43149    160743.73747                  23837396.0304
        39.5004         27.0004
  20614177.0664    -330504.73049   -258244.33748                  20614174.0284
        51.5004         44.7504
  20747918.8454    -358637.74949   -280574.82748                  20747916.0074
        50.5004         44.0004
  22000105.7634   -1334837.01949  -1029836.06548                  22000101.9764
        50.5004         39.5004
  22182862.9834     921382.84049    704305.47647                  22182861.7224
        48.7504         36.0004
  23489267.1494    1302755.18249    996676.87647                  23489266.2914
        45.2504         29.5004
 04  6 29 15 37 50.0000000  0  8G 6G15G16G18G21G22G26G29
  21467918.6494    1431026.86049   1095438.63048                  21467917.6114
        49.2504         41.0004
  22730920.4544   -1474260.60249  -1137529.39847                  22730919.2854
        43.7504         34.2504
  23838313.8004     219047.02949    164494.55547                  23838312.6324
        40.5004         28.2504
  20613337.4054    -334916.99749   -261682.46648                  20613334.3494
        51.0004         44.7504
  20746860.0054    -364202.91249   -284911.32348                  20746857.2544
        51.2504         43.5004
  21996088.3844   -1355947.43149  -1046285.73447                  21996085.2134
        50.7504         39.0004
  22186076.5264     938273.00349    717466.63547                  22186076.0134
        48.2504         35.7504
  23493550.0484    1325260.59249   1014213.55047                  23493549.2444
        44.7504         29.0004
 04  6 29 15 38  0.0000000  0  8G 6G15G16G18G21G22G26G29
  21472523.8254    1455226.38549   1114295.40148                  21472522.4904
        48.0004         41.0004
  22726353.0934   -1498262.99649  -1156232.55447                  22726352.0304
        45.0004         34.2504
  23839238.6264     223904.49849    168279.58947                  23839237.1994
        39.2504         28.0004
  20612504.5624    -339294.00949   -265093.11748                  20612501.8074
        50.7504         45.0004
  20745803.6444    -369753.87249   -289236.74748                  20745801.0994
        50.0004         43.5004
  21992077.0744   -1377028.48549  -1062712.51147                  21992073.5464
        50.7504         39.0004
  22189302.3024     955221.90549    730673.56047                  22189301.1794
        48.2504         35.5004
  23497840.1404    1347803.94849   1031779.78847                  23497838.7224
        44.0004         30.0004
 04  6 29 15 38 10.0000000  0  8G 6G15G16G18G21G22G26G29
  21477135.6484    1479462.90349   1133180.98948                  21477134.6664
        49.7504         40.7504
  22721785.3914   -1522267.67049  -1174937.48947                  22721783.5254
        45.0004         34.2504
  23840171.1184     228806.40749    172099.25147                  23840169.8114
        41.5004         28.2504
  20611678.2724    -343635.21849   -268475.87748                  20611675.2744
        51.0004         45.0004
  20744750.1084    -375290.10449   -293550.69148                  20744747.2024
        51.5004         43.5004
  21988070.7454   -1398079.56949  -1079115.95147                  21988067.3634
        50.7504         39.2504
  22192538.4704     972229.93449    743926.56147                  22192537.4764
        48.5004         36.2504
  23502137.0444    1370385.80849   1049376.04047                  23502135.8504
        45.0004         30.2504
 04  6 29 15 38 20.0000000  0  8G 6G15G16G18G21G22G26G29
  21481754.6714    1503736.53549   1152095.48848                  21481753.4984
        49.2504         40.7504
  22717216.3404   -1546274.53549  -1193644.14147                  22717215.4214
        44.7504         33.5004
  23841112.1114     233752.82749    175953.57847                  23841111.3104
        42.2504         28.2504
  20610859.0564    -347940.47949   -271830.62948                  20610856.0844
        51.0004         45.0004
  20743699.5154    -380811.38849   -297852.99648                  20743696.4014
        51.0004         43.7504
  21984070.9224   -1419100.57849  -1095495.95548                  21984067.7474
        51.0004         39.5004
  22195786.5204     989297.21249    757225.74347                  22195785.5534
        48.2504         35.7504
  23506441.8224    1393006.11949   1067002.24247                  23506440.5154
        44.2504         29.5004
 04  6 29 15 38 30.0000000  0  8G 6G15G16G18G21G22G26G29
  21486381.0684    1528047.11549   1171038.79448                  21486379.8694
        49.2504         41.2504
  22712648.0384   -1570283.50549  -1212352.42247                  22712646.6954
        45.2504         34.2504
  23842062.0224     238743.78449    179842.63247                  23842060.5924
        41.5004         28.0004
  20610046.5464    -352209.86449   -275157.42548                  20610043.8344
        51.5004         44.7504
  20742651.6204    -386317.65249   -302143.58648                  20742648.9034
        51.7504         43.5004
  21980076.2584   -1440091.39549  -1111852.41547                  21980072.8084
        50.5004         39.2504
  22199045.5994    1006423.74149    770571.08247                  22199044.2394
        48.0004         35.0004
  23510753.2024    1415664.84849   1084658.38347                  23510752.6764
        42.7504         30.0004
 04  6 29 15 38 40.0000000  0  8G 6G15G16G18G21G22G26G29
  21491014.2394    1552395.46549   1190011.52148                  21491013.1674
        49.2504         41.0004
  22708079.0584   -1594293.79249  -1231061.73347                  22708077.2824
        44.2504         33.0004
  23843020.3914     243779.91149    183766.84747                  23843018.8624
        40.0004         29.2504
  20609241.4184    -356442.51949   -278455.59648                  20609238.0574
        50.0004         44.5004
  20741606.8294    -391808.02149   -306421.80248                  20741603.8784
        51.0004         43.5004
  21976087.8484   -1461051.20149  -1128184.73548                  21976084.6104
        50.2504         39.5004
  22202316.0734    1023610.23649    783963.16547                  22202315.0604
        48.0004         35.2504
  23515072.7214    1438362.94949   1102345.20647                  23515071.6924
        45.0004         29.7504
 04  6 29 15 38 50.0000000  0  8G 6G15G16G18G21G22G26G29
  21495654.9004    1576781.07649   1209013.27748                  21495653.7524
        49.5004         41.2504
  22703509.7344   -1618305.78649  -1249772.37947                  22703508.2334
        45.5004         33.0004
  23843987.3824     248860.75049    187725.93347                  23843986.3924
        41.5004         29.0004
  20608442.9934    -360638.97249   -281725.56648                  20608440.0774
        50.5004         45.0004
  20740565.3914    -397282.91349   -310687.95648                  20740561.9564
        51.0004         43.7504
  21972105.1534   -1481980.49549  -1144493.27647                  21972101.8784
        50.7504         39.0004
  22205598.2424    1040856.14249    797401.51947                  22205596.7734
        47.5004         35.2504
  23519398.8724    1461099.71049   1120062.13947                  23519398.4334
        44.7504         29.5004
 04  6 29 15 39  0.0000000  0  8G 6G15G16G18G21G22G26G29
  21500302.1504    1601202.02949   1228042.58048                  21500300.8314
        50.0004         41.0004
  22698940.0184   -1642321.29549  -1268485.74447                  22698938.3064
        44.5004         33.7504
  23844962.0794     253984.42849    191718.38447                  23844961.4194
        42.2504         28.5004
  20607650.6004    -364801.12649   -284968.79748                  20607647.7024
        51.0004         45.0004
  20739525.9874    -402744.22149   -314943.51848                  20739522.6764
        51.5004         43.7504
  21968127.9704   -1502881.11949  -1160779.46048                  21968124.3214
        51.0004         39.5004
  22208890.7114    1058159.54549    810884.68847                  22208889.3934
        47.5004         35.7504
  23523732.9564    1483873.23849   1137807.73147                  23523732.1004
        45.2504         30.2504
 04  6 29 15 39 10.0000000  0  8G 6G15G16G18G21G22G26G29
  21504956.3824    1625659.49749   1247100.33048                  21504954.8434
        49.7504         40.5004
  22694368.9714   -1666339.08649  -1287200.90047                  22694367.7114
        45.2504         33.2504
  23845946.0184     259152.14249    195745.14847                  23845944.9734
        41.5004         30.0004
  20606865.1204    -368927.75949   -288184.36148                  20606862.3994
        51.0004         44.5004
  20738489.6614    -408190.55049   -319187.43048                  20738486.3754
        51.5004         43.5004
  21964156.1654   -1523751.78749  -1177042.32547                  21964152.9874
        50.0004         39.2504
  22212194.5834    1075521.63549    824413.57147                  22212193.2274
        48.0004         34.7504
  23528074.4164    1506684.67449   1155582.86847                  23528073.2014
        45.5004         29.7504
 04  6 29 15 39 20.0000000  0  8G 6G15G16G18G21G22G26G29
  21509617.3804    1650155.26049   1266187.92248                  21509616.1034
        51.0004         41.0004
  22689799.0624   -1690357.27249  -1305916.37247                  22689797.4634
        45.7504         34.0004
  23846937.9984     264365.68649    199807.64547                  23846936.8834
        41.7504         28.7504
  20606086.9964    -373016.96249   -291370.75148                  20606084.1094
        51.2504         44.7504
  20737456.1554    -413620.09949   -323418.23648                  20737453.0624
        52.7504         43.7504
  21960190.6834   -1544590.64049  -1193280.38748                  21960187.6014
        50.7504         39.5004
  22215509.8584    1092944.15949    837989.56747                  22215508.7174
        47.5004         35.0004
  23532422.1914    1529535.78049   1173388.92147                  23532421.4884
        45.5004         30.5004
 04  6 29 15 39 30.0000000  0  8G 6G15G16G18G21G22G26G29
  21514285.9024    1674687.45849   1285303.90248                  21514284.4964
        49.7504         40.2504
  22685228.0184   -1714377.64049  -1324633.53947                  22685226.2984
        44.0004         34.0004
  23847938.4584     269623.12649    203904.31547                  23847936.7724
        41.2504         28.7504
  20605315.8374    -377070.55749   -294529.40848                  20605312.8104
        51.0004         44.7504
  20736426.0194    -419034.60449   -327637.33848                  20736423.0284
        52.2504         44.0004
  21956230.6784   -1565399.47649  -1209495.05247                  21956227.9504
        50.2504         39.2504
  22218836.5634    1110425.31949    851611.24147                  22218835.1744
        48.2504         35.0004
  23536778.1664    1552424.67349   1191224.40947                  23536777.1794
        44.5004         30.2504
 04  6 29 15 39 40.0000000  0  8G 6G15G16G18G21G22G26G29
  21518961.1104    1699256.33649   1304448.48548                  21518960.2594
        50.5004         41.0004
  22680656.7004   -1738399.85549  -1343352.13447                  22680655.1564
        43.5004         34.0004
  23848947.5374     274924.79649    208035.48747                  23848945.6374
        41.0004         28.5004
  20604551.1154    -381088.29749   -297660.10948                  20604548.0804
        50.5004         44.7504
  20735398.4194    -424433.73149   -331844.45248                  20735395.2874
        52.7504         43.7504
  21952276.9654   -1586177.89749  -1225686.02447                  21952273.5644
        50.7504         39.2504
  22222174.3114    1127965.26849    865278.73547                  22222173.4094
        48.2504         34.7504
  23541141.1714    1575351.67049   1209089.59147                  23541140.1774
        45.2504         29.7504
 04  6 29 15 39 50.0000000  0  8G 6G15G16G18G21G22G26G29
  21523643.5844    1723863.25349   1323622.68848                  21523642.5714
        49.5004         41.0004
  22676084.6724   -1762422.55749  -1362071.11647                  22676083.3154
        45.2504         33.5004
  23849965.5024     280272.03049    212202.12347                  23849963.5184
        40.5004         28.2504
  20603793.7284    -385068.85749   -300761.84648                  20603790.8544
        51.2504         44.7504
  20734374.4284    -429816.12449   -336038.51148                  20734371.4804
        51.2504         44.0004
  21948328.7694   -1606924.66349  -1241852.32647                  21948325.8274
        50.7504         39.2504
  22225523.4504    1145565.37449    878993.09447                  22225522.0464
        48.7504         34.7504
  23545510.8874    1598317.91549   1226985.34247                  23545510.0584
        44.7504         30.5004
 04  6 29 15 40  0.0000000  0  8G 6G15G16G18G21G22G26G29
  21528333.6054    1748507.41349   1342825.91548                  21528332.4334
        50.7504         40.2504
  22671513.0934   -1786446.40349  -1380790.99247                  22671511.8834
        44.2504         33.0004
  23850990.5384     285664.05949    216403.69847                  23850989.0774
        41.5004         28.0004
  20603043.1254    -389012.95149   -303835.16548                  20603040.6364
        51.5004         44.5004
  20733353.0044    -435182.37849   -340220.00848                  20733349.8124
        52.2504         43.7504
  21944386.5704   -1627640.30549  -1257994.38847                  21944383.7734
        50.2504         39.0004
  22228883.9064    1163224.80149    892753.67547                  22228883.1044
        48.0004         35.0004
  23549889.2184    1621322.82149   1244911.23147                  23549888.0614
        44.5004         30.2504
 04  6 29 15 40 10.0000000  0  8G 6G15G16G18G21G22G26G29
  21533030.1984    1773188.84949   1362058.19448                  21533029.2504
        50.5004         40.5004
  22666941.4224   -1810471.30249  -1399511.68147                  22666940.4724
        44.5004         33.5004
  23852025.4494     291100.87849    220640.17047                  23852023.9114
        41.2504         27.7504
  20602299.4684    -392920.62449   -306880.10148                  20602296.1754
        52.0004         45.0004
  20732334.8344    -440532.42849   -344388.87548                  20732331.9454
        52.5004         43.5004
  21940450.9474   -1648324.84449  -1274112.20247                  21940447.5514
        51.0004         39.2504
  22232255.2554    1180943.63849    906560.56947                  22232254.7664
        47.2504         35.0004
  23554273.6704    1644366.19249   1262867.09547                  23554273.1914
        45.0004         29.5004
 04  6 29 15 40 20.0000000  0  8G 6G15G16G18G21G22G26G29
  21537733.9644    1797908.51449   1381320.25848                  21537732.5024
        50.2504         40.7504
  22662369.8374   -1834496.19349  -1418232.36947                  22662368.2854
        45.0004         33.2504
  23853068.8764     296583.46449    224912.29847                  23853067.5584
        42.0004         28.5004
  20601563.0594    -396790.82249   -309895.85048                  20601560.1014
        51.2504         45.0004
  20731320.3034    -445865.19949   -348544.27948                  20731316.9044
        52.2504         43.5004
  21936521.0744   -1668977.18349  -1290204.92948                  21936517.3204
        50.7504         39.7504
  22235638.7804    1198722.76349    920414.41547                  22235637.8704
        47.5004         35.5004
  23558666.0654    1667449.11149   1280853.78647                  23558665.6134
        45.2504         30.0004
 04  6 29 15 40 30.0000000  0  8G 6G15G16G18G21G22G26G29
  21542445.1604    1822664.72749   1400610.80148                  21542444.0014
        49.5004         40.5004
  22657798.2764   -1858522.63149  -1436954.26747                  22657796.1884
        43.7504         34.0004
  23854120.7764     302110.13649    229218.75947                  23854119.3514
        41.2504         28.5004
  20600833.7504    -400625.12149   -312883.61448                  20600830.8694
        49.2504         45.0004
  20730308.2834    -451182.21649   -352687.41448                  20730305.3864
        50.7504         43.5004
  21932596.5494   -1689598.87249  -1306273.77347                  21932592.8694
        51.0004         39.0004
  22239033.5474    1216560.62849    934314.03947                  22239032.2754
        47.7504         36.0004
  23563066.4444    1690569.84249   1298869.91047                  23563065.2914
        44.7504         30.0004
 04  6 29 15 40 40.0000000  0  8G 6G15G16G18G21G22G26G29
  21547162.9524    1847458.48949   1419930.61048                  21547161.8374
        49.5004         40.2504
  22653225.4864   -1882549.59149  -1455676.55947                  22653224.1904
        43.5004         33.5004
  23855181.0284     307681.95349    233560.43847                  23855179.4644
        41.0004         28.0004
  20600110.9464    -404422.62749   -315842.71348                  20600108.0614
        51.0004         45.0004
  20729299.7264    -456482.44049   -356817.45748                  20729297.3264
        52.0004         43.7504
  21928678.2324   -1710188.95349  -1322317.99647                  21928674.9194
        50.0004         38.7504
  22242439.1614    1234457.99049    948260.03847                  22242438.0384
        47.7504         35.2504
  23567473.4554    1713729.32149   1316916.25547                  23567472.5264
        45.2504         30.0004
 04  6 29 15 40 50.0000000  0  8G 6G15G16G18G21G22G26G29
  21551888.1884    1872289.40349   1439279.35448                  21551887.4114
        49.7504         40.0004
  22648653.4154   -1906577.26649  -1474399.41847                  22648651.7784
        44.5004         33.0004
  23856249.5194     313298.53149    237936.97147                  23856248.5664
        42.7504         28.2504
  20599395.2944    -408183.54149   -318773.29548                  20599392.5624
        52.0004         44.7504
  20728294.3914    -461766.09749   -360934.59248                  20728291.4544
        51.5004         43.7504
  21924766.5324   -1730747.64149  -1338337.73547                  21924762.6214
        50.2504         39.0004
  22245856.1964    1252414.70149    962252.27147                  22245854.6634
        48.0004         35.0004
  23571887.4204    1736927.20449   1334992.51247                  23571886.9014
        45.2504         29.7504
 04  6 29 15 41  0.0000000  0  8G 6G15G16G18G21G22G26G29
  21556620.3354    1897158.13749   1458657.57948                  21556618.9554
        49.5004         40.5004
  22644080.7974   -1930605.03849  -1493122.34647                  22644079.2564
        43.7504         33.0004
  23857326.6794     318960.45649    242348.85847                  23857325.6524
        42.0004         28.5004
  20598686.7664    -411907.29149   -321674.92848                  20598683.7324
        50.0004         44.7504
  20727292.2164    -467032.54249   -365038.31248                  20727289.0734
        51.2504         43.7504
  21920859.9074   -1751274.31849  -1354332.55248                  21920856.2584
        50.7504         39.5004
  22249284.4454    1270431.21249    976291.11147                  22249283.4604
        48.5004         35.5004
  23576309.5904    1760164.04649   1353099.14447                  23576308.5564
        45.0004         29.0004
 04  6 29 15 41 10.0000000  0  8G 6G15G16G18G21G22G26G29
  21561360.2924    1922063.95849   1478064.70048                  21561358.7844
        48.7504         40.2504
  22639508.6024   -1954633.35649  -1511845.71847                  22639506.9674
        44.7504         33.2504
  23858413.1234     324667.24349    246795.67147                  23858411.5514
        39.7504         29.0004
  20597985.2824    -415594.33349   -324547.94448                  20597982.0424
        49.5004         44.7504
  20726293.2484    -472282.21049   -369128.97048                  20726289.7844
        50.7504         43.5004
  21916960.1144   -1771769.43349  -1370302.75748                  21916956.6974
        51.0004         39.5004
  22252724.3144    1288506.99849    990376.12247                  22252723.0024
        48.5004         35.5004
  23580738.5904    1783439.34749   1371235.72247                  23580737.8994
        45.0004         30.2504
 04  6 29 15 41 20.0000000  0  8G 6G15G16G18G21G22G26G29
  21566106.5624    1947007.08049   1497500.90248                  21566104.9634
        48.5004         40.7504
  22634935.4524   -1978662.16649  -1530569.45747                  22634934.3854
        44.0004         33.0004
  23859507.6574     330418.82949    251277.41747                  23859506.4104
        43.0004         29.2504
  20597290.3284    -419244.68649   -327392.37248                  20597287.0004
        50.2504         45.0004
  20725297.4394    -477514.91149   -373206.40448                  20725294.5444
        50.5004         43.7504
  21913065.9004   -1792232.93049  -1386248.33648                  21913062.3094
        51.2504         39.7504
  22256175.5454    1306641.99149   1004507.29147                  22256174.0384
        48.0004         35.5004
  23585175.3114    1806752.96949   1389402.18547                  23585173.9414
        45.5004         29.0004
 04  6 29 15 41 30.0000000  0  8G 6G15G16G18G21G22G26G29
  21570860.6254    1971987.34049   1516966.03448                  21570858.9864
        48.2504         40.0004
  22630363.4134   -2002691.41549  -1549293.54347                  22630361.9894
        44.5004         33.2504
  23860610.6974     336215.13649    255793.98247                  23860609.3994
        42.5004         28.7504
  20596603.0594    -422858.40849   -330208.26548                  20596599.9684
        51.5004         44.7504
  20724304.7754    -482730.73649   -377270.68848                  20724301.8264
        51.2504         43.5004
  21909177.6484   -1812664.80349  -1402169.27348                  21909174.0474
        51.5004         39.7504
  22259637.8084    1324836.14949   1018684.53747                  22259636.7004
        48.0004         35.0004
  23589618.7954    1830104.98949   1407598.54447                  23589617.6744
        44.5004         29.7504
 04  6 29 15 41 40.0000000  0  8G 6G15G16G18G21G22G26G29
  21575620.9034    1997004.80349   1536460.16248                  21575619.7614
        48.2504         40.0004
  22625790.8964   -2026720.94749  -1568017.84547                  22625789.1744
        44.2504         34.0004
  23861721.9684     342056.20349    260345.49547                  23861720.9564
        40.7504         29.0004
  20595922.0474    -426435.39049   -332995.52548                  20595919.1614
        51.2504         45.0004
  20723315.4854    -487929.53349   -381321.69248                  20723312.6544
        51.0004         43.7504
  21905295.9554   -1833064.87549  -1418065.43748                  21905291.8284
        51.0004         39.7504
  22263111.2344    1343089.58149   1032907.98647                  22263110.1924
        48.2504         35.0004
  23594069.5634    1853495.28649   1425824.75347                  23594069.2794
        45.5004         29.0004
 04  6 29 15 41 50.0000000  0  8G 6G15G16G18G21G22G26G29
  21580388.4894    2022060.15049   1555983.80747                  21580387.6144
        47.5004         39.2504
  22621218.4154   -2050750.04749  -1586741.81947                  22621216.7124
        42.2504         33.0004
  23862842.3484     347942.82949    264932.42047                  23862840.9224
        43.2504         28.7504
  20595248.7914    -429974.96649   -335753.64148                  20595245.9434
        50.7504         44.7504
  20722329.8184    -493110.45249   -385358.77948                  20722326.7854
        51.2504         43.7504
  21901420.0454   -1853432.48549  -1433936.29648                  21901416.6484
        51.7504         39.5004
  22266596.0744    1361402.86749   1047178.06947                  22266594.6614
        48.0004         35.5004
  23598528.0204    1876924.67749   1444081.39147                  23598527.8414
        45.2504         28.2504
 04  6 29 15 42  0.0000000  0  8G 6G15G16G18G21G22G26G29
  21585163.8234    2047152.84849   1575536.54447                  21585162.6514
        49.2504         39.0004
  22616645.1524   -2074779.10049  -1605465.76047                  22616644.1864
        43.7504         33.5004
  23863970.6674     353874.45849    269554.48247                  23863969.3434
        42.5004         28.5004
  20594581.8824    -433477.71749   -338483.05148                  20594579.1514
        50.7504         44.7504
  20721347.1564    -498273.93249   -389382.26348                  20721344.1144
        52.0004         43.5004
  21897550.2254   -1873767.99449  -1449782.13647                  21897546.7094
        51.0004         39.0004
  22270092.3994    1379775.66049   1061494.52647                  22270091.4264
        48.2504         36.0004
  23602994.3194    1900392.60849   1462368.09647                  23602993.5764
        46.2504         30.0004
 04  6 29 15 42 10.0000000  0  8G 6G15G16G18G21G22G26G29
  21589946.0374    2072283.37049   1595118.75948                  21589944.5924
        47.5004         39.5004
  22612072.8844   -2098807.64949  -1624189.29047                  22612071.5474
        43.2504         33.0004
  23865108.3104     359851.47749    274211.83947                  23865107.2614
        43.5004         28.5004
  20593922.7294    -436943.00749   -341183.28448                  20593919.4824
        50.2504         45.0004
  20720368.1224    -503419.43249   -393391.75048                  20720365.0244
        50.7504         43.7504
  21893686.7224   -1894070.95449  -1465602.61447                  21893683.3624
        51.2504         38.7504
  22273600.2644    1398208.11149   1075857.46847                  22273598.8004
        48.0004         36.2504
  23607467.4524    1923899.29149   1480684.98047                  23607466.0754
        45.2504         29.0004
 04  6 29 15 42 20.0000000  0  8G 6G15G16G18G21G22G26G29
  21594734.8424    2097450.19149   1614729.26848                  21594733.9324
        46.7504         40.0004
  22607499.9994   -2122836.98649  -1642913.43847                  22607498.6564
        45.7504         33.2504
  23866254.4694     365872.49449    278903.54647                  23866253.3134
        42.5004         29.2504
  20593270.0864    -440372.25749   -343855.41948                  20593267.0104
        50.7504         45.0004
  20719391.9704    -508548.22249   -397388.20348                  20719388.8894
        50.5004         43.5004
  21889829.1284   -1914342.60949  -1481398.71148                  21889825.3314
        50.5004         39.5004
  22277118.8194    1416698.89749   1090265.87247                  22277117.7654
        48.7504         36.7504
  23611947.5964    1947443.52349   1499031.11947                  23611947.0424
        45.0004         30.0004
 04  6 29 15 42 30.0000000  0  8G 6G15G16G18G21G22G26G29
  21599531.0454    2122653.49349   1634368.18548                  21599529.5574
        46.2504         40.0004
  22602927.1334   -2146866.95649  -1661638.09047                  22602926.4714
        43.5004         33.5004
  23867408.3864     371937.62649    283629.60147                  23867407.5634
        42.5004         27.5004
  20592624.3974    -443765.30149   -346499.35248                  20592621.4014
        50.7504         45.0004
  20718419.4694    -513660.19849   -401371.56648                  20718416.4284
        50.2504         43.7504
  21885977.6144   -1934582.85949  -1497170.31947                  21885974.0544
        51.7504         39.2504
  22280648.7254    1435248.21449   1104719.86847                  22280647.1064
        48.2504         36.0004
  23616435.1654    1971025.21149   1517406.45447                  23616434.5574
        44.7504         29.0004
 04  6 29 15 42 40.0000000  0  8G 6G15G16G18G21G22G26G29
  21604334.0014    2147894.66849   1654036.62348                  21604332.9004
        48.2504         39.7504
  22598355.2314   -2170896.00349  -1680362.00747                  22598353.7644
        44.2504         33.5004
  23868570.9124     378048.25549    288391.13047                  23868570.5154
        42.5004         27.7504
  20591985.9724    -447120.72349   -349113.96948                  20591982.8584
        51.2504         44.7504
  20717450.1564    -518753.85549   -405340.65848                  20717447.2424
        51.7504         43.7504
  21882132.2254   -1954790.12349  -1512916.23747                  21882128.8084
        51.0004         39.0004
  22284189.7444    1453857.42749   1119220.53947                  22284188.6594
        49.0004         36.2504
  23620930.1584    1994645.92549   1535812.17747                  23620929.3774
        44.2504         29.0004
 04  6 29 15 42 50.0000000  0  8G 6G15G16G18G21G22G26G29
  21609144.5814    2173172.78449   1673733.84448                  21609143.0524
        46.5004         39.7504
  22593782.7674   -2194925.00949  -1699085.91347                  22593781.0694
        45.0004         33.0004
  23869742.6934     384203.49549    293187.41747                  23869741.3204
        41.5004         28.0004
  20591354.0664    -450439.41449   -351699.96948                  20591351.0584
        51.5004         45.0004
  20716483.7474    -523829.99949   -409296.09348                  20716480.7784
        51.0004         43.7504
  21878293.2884   -1974965.38849  -1528637.22248                  21878289.7014
        51.2504         39.5004
  22287742.0154    1472525.47649   1133767.07547                  22287741.2324
        48.2504         36.2504
  23625432.1374    2018304.61749   1554247.51547                  23625431.3344
        44.5004         28.5004
 04  6 29 15 43  0.0000000  0  8G 6G15G16G18G21G22G26G29
  21613961.7514    2198487.77849   1693459.80048                  21613960.3794
        47.0004         39.7504
  22589209.8814   -2218953.89749  -1717809.71047                  22589208.6604
        44.0004         33.0004
  23870922.4234     390403.27449    298018.41047                  23870920.6254
        42.0004         27.7504
  20590729.8184    -453721.36549   -354257.32748                  20590726.7194
        51.2504         44.7504
  20715521.3814    -528888.54749   -413237.81348                  20715518.0604
        51.0004         44.0004
  21874459.9554   -1995108.51449  -1544333.15948                  21874456.4594
        50.5004         39.7504
  22291305.8274    1491252.41949   1148359.49247                  22291304.3834
        48.5004         36.5004
  23629941.6724    2042001.17149   1572712.34747                  23629940.6584
        44.5004         27.7504
 04  6 29 15 43 10.0000000  0  8G 6G15G16G18G21G22G26G29
  21618785.7714    2223838.38449   1713213.51248                  21618785.0644
        46.5004         40.0004
  22584637.4214   -2242983.92449  -1736534.39147                  22584635.8094
        44.5004         33.2504
  23872110.7614     396646.35749    302883.13347                  23872109.5434
        42.0004         28.7504
  20590112.0244    -456967.72849   -356786.96148                  20590109.0844
        51.5004         45.0004
  20714562.0104    -533930.58449   -417166.67048                  20714559.1494
        50.5004         44.0004
  21870632.7164   -2015220.69349  -1560004.97448                  21870629.4304
        50.7504         39.7504
  22294880.4234    1510036.86649   1162996.71947                  22294878.7184
        49.0004         36.2504
  23634457.8224    2065734.35149   1591205.71547                  23634456.4874
        45.0004         28.2504
 04  6 29 15 43 20.0000000  0  8G 6G15G16G18G21G22G26G29
  21623617.0254    2249225.87849   1732995.96247                  21623615.5974
        46.0004         39.0004
  22580063.9324   -2267013.63049  -1755258.83647                  22580063.1434
        44.2504         34.0004
  23873306.8434     402933.97649    307782.58147                  23873305.2984
        40.7504         28.2504
  20589501.4134    -460177.25949   -359287.89748                  20589498.0674
        51.5004         45.0004
  20713605.8224    -538954.84249   -421081.68348                  20713602.7554
        50.2504         44.0004
  21866811.5694   -2035300.65649  -1575651.69148                  21866808.2694
        51.5004         40.0004
  22298466.2684    1528880.12149   1177679.76347                  22298464.9274
        49.0004         35.5004
  23638981.2584    2089505.41049   1609728.60047                  23638980.3734
        45.5004         28.5004
 04  6 29 15 43 30.0000000  0  8G 6G15G16G18G21G22G26G29
  21628454.9934    2274649.70549   1752806.72948                  21628454.0144
        46.5004         39.7504
  22575492.1764   -2291043.53349  -1773983.44247                  22575490.3584
        44.0004         33.5004
  23874511.9734     409265.57049    312716.26547                  23874510.3054
        42.2504         27.2504
  20588897.4254    -463350.61249   -361760.64048                  20588894.3704
        52.0004         45.0004
  20712653.0744    -543961.81349   -424983.22048                  20712649.9474
        51.0004         44.0004
  21862996.6404   -2055348.89849  -1591273.69648                  21862993.1214
        51.2504         40.0004
  22302063.0404    1547781.60949   1192408.18747                  22302061.9134
        48.5004         36.0004
  23643511.7034    2113313.68749   1628280.48847                  23643510.5504
        44.0004         27.5004
 04  6 29 15 43 40.0000000  0  8G 6G15G16G18G21G22G26G29
  21633300.1384    2300111.82049   1772647.32948                  21633299.0644
        46.5004         39.7504
  22570919.5044   -2315071.57549  -1792706.56847                  22570917.7874
        44.2504         33.5004
  23875725.8354     415643.20549    317685.83947                  23875723.9064
        42.5004         27.5004
  20588300.5314    -466485.77549   -364203.62448                  20588297.8264
        52.0004         45.0004
  20711703.8704    -548949.42349   -428869.66148                  20711701.0864
        51.0004         43.5004
  21859188.1964   -2075363.31449  -1606869.33748                  21859184.6584
        51.5004         40.0004
  22305671.4304    1566743.32449   1207183.55047                  22305669.8824
        49.0004         36.0004
  23648049.5994    2137161.25049   1646863.00547                  23648048.7244
        44.5004         28.5004
 04  6 29 15 43 50.0000000  0  8G 6G15G16G18G21G22G26G29
  21638152.4534    2325610.42849   1792516.34948                  21638151.8464
        47.0004         40.2504
  22566346.9004   -2339099.38549  -1811429.53447                  22566345.7324
        43.7504         34.0004
  23876947.4924     422065.13949    322689.92347                  23876945.9474
        42.0004         28.2504
  20587711.1674    -469584.38449   -366618.12848                  20587707.8874
        52.0004         44.7504
  20710758.1784    -553919.29949   -432742.29848                  20710755.4364
        51.0004         43.7504
  21855385.6864   -2095345.59949  -1622439.95248                  21855381.9334
        51.0004         39.5004
  22309290.7134    1585763.51249   1222004.45847                  22309289.2544
        49.5004         36.5004
  23652594.6304    2161046.28149   1665474.70647                  23652593.8424
        44.5004         27.7504
